Location: Quedlinburg
(51.7921°N, 11.1414°E)
Time: 07:51:14
(UTC+02:00)

SO-50 - Pass Details

Date: 07 March 2026
Orbit: 567 x 673 km, 64.6° (Epoch: 13 April)

Event Time Altitude Azimuth Distance (km) Brightness Sun altitude
Exits shadow 02:50:13 25° 53° (NE) 1,345 ? -34.9°
Drops below altitude 10° 02:53:10 10° 87° (E) 2,104 ? -34.5°
Sets 02:55:45 0° 99° (E) 3,007 ? -34.2°
